SCP
0 0 -0 -0 0 0 0 0 0 0 0 0 0 0 0 0 0 0 0 0 0 0 0 0 0 0 0 0 0 0 0 0 0 0 0 0 0 0 0 0 0 0 0 0 0 0 0 0 0 0 0 0 0 0
-0 -0 -0 -0 -0 0 0 0 0 0 0 0 0 0 0 0 0 0 0 0 0 0 0 0 0 0 0 0 0 0 0 -0 0 0 0 0 0 0 0 0 0 0 0 0 0 0 0 0 0 0 0 0 0 0
-0 0 -0 -0 -0 -0 -0 -0 0 0 0 0 0 0 0 0 0 0 0 0 0 0 0 0 0 0 0 -0 0 0 0 0 0 0 0 0 0 0 0 0 0 0 0 0 0 0 0 0 0 0 0 0 0 0
-0 -0 -0 -0 -0 -0 -0 0 0 0 0 0 0 0 0 0 0 0 0 0 0 0 0 0 0 0 0 -0 -0 -0 0 0 -0 0 0 0 0 0 0 0 0 0 0 0 0 0 0 0 0 0 0 0 0 0
-0 -0 -0 -0 -0 -0 -0 -0 0 0 0 0 0 0 0 0 -0 0 0 0 0 0 0 0 0 0 0 -0 -0 -0 0 0 0 0 0 0 0 0 0 0 0 0 0 0 0 0 0 0 0 0 0 0 0 0
-0 -0 -0 -0 -0 -0 0 -0 0 0 0 0 0 0 0 0 0 0 0 -0 0 0 0 0 0 0 0 -0 -0 -0 -0 0 0 0 0 0 0 0 0 0 0 0 0 0 0 0 0 0 0 0 0 0 0 0
-0 -0 -0 -0 -0 -0 -0 -0 0 0 0 0 0 0 0 0 0 0 0 0 0 0 0 0 -0 0 -0 -0 -0 -0 -0 0 0 0 0 0 0 0 0 0 0 0 0 0 0 0 0 0 0 0 0 0 0 0
-0 -0 -0 -0 -0 -0 -0 -0 -0 0 0 0 0 0 0 0 0 0 0 0 0 0 0 0 -0 -0 -0 -0 -0 -0 -0 0 0 0 0 0 0 0 0 0 0 0 0 0 0 0 0 0 0 0 0 0 0 0
-0 -0 -0 -0 -0 -0 -0 -0 -0 -0 0 0 0 0 0 0 0 0 0 0 0 0 0 0 0 -0 -0 -0 -0 -0 -0 0 0 0 0 0 0 0 0 0 0 0 0 0 0 0 0 0 0 0 0 0 0 0
-0 -0 -0 -0 -0 -0 -0 -0 -0 -0 0 0 0 0 0 0 0 0 0 0 0 0 0 0 0 0 0 -0 -0 -0 -0 0 0 0 0 0 0 0 0 0 0 0 0 0 0 0 0 0 0 0 0 0 0 0
-0 -0 -0 -0 -0 -0 -0 -0 -0 0 0 0 0 0 0 0 0 0 0 0 0 0 0 0 0 0 0 -0 -0 -0 -0 0 0 0 0 0 0 0 0 0 0 0 0 0 0 0 0 0 0 0 0 0 0 0
0 0 0 0 0 0 0 0 0 0 0 0 0 0 0 0 0 0 0 0 0 0 0 0 0 0 0 0 -0 -0 -0 0 0 0 0 0 0 0 0 0 0 0 0 0 0 0 0 0 0 0 0 0 0 0
0 0 0 0 0 0 0 0 0 0 0 0 0 0 0 0 0 0 0 0 0 0 0 0 0 0 0 0 0 0 0 -0 -0 0 0 0 0 0 0 0 0 0 0 0 0 0 0 0 0 0 0 0 0 0
-0 0 0 0 0 0 0 0 0 0 0 0 0 0 0 0 0 0 0 0 0 0 0 0 0 0 0 0 0 0 0 0 -0 0 0 0 0 0 0 0 0 0 0 0 0 0 0 0 0 0 0 0 0 0
0 0 0 -0 -0 0 0 0 0 0 0 0 0 0 0 0 0 0 0 0 0 0 0 0 0 0 0 0 0 0 0 0 0 0 0 0 0 0 0 0 0 0 0 0 0 0 0 0 0 0 0 0 0 0
0 0 0 0 0 -0 -0 0 0 0 0 0 0 0 0 0 0 0 0 0 0 0 0 0 0 0 0 0 0 0 0 0 0 0 0 0 0 0 0 0 0 0 0 0 0 0 0 0 0 0 0 0 0 0
0 0 0 0 0 0 0 0 0 0 0 0 0 0 0 0 0 0 0 0 0 0 0 0 0 0 0 0 0 0 0 0 0 0 0 0 0 0 0 0 0 0 0 0 0 0 0 0 0 0 0 0 0 0
0 0 0 0 0 0 0 0 -0 0 0 0 0 0 0 0 0 0 0 0 0 0 0 0 0 0 0 0 0 0 0 0 0 0 0 0 0 0 0 0 0 0 0 0 0 0 0 0 0 0 0 0 0 0
0 0 0 -0 0 0 0 0 0 0 -0 -0 -0 0 0 0 0 0 0 0 0 0 0 0 0 0 0 0 0 0 0 0 0 0 0 0 0 0 0 0 0 0 0 0 0 0 0 0 0 0 0 0 0 0
0 0 -0 0 0 0 0 0 0 0 0 0 0 -0 0 0 0 0 0 0 0 0 0 0 0 0 0 0 0 0 0 0 0 0 0 0 0 0 0 0 0 0 0 0 0 0 0 0 0 0 0 0 0 0
0 0 0 0 0 0 0 0 0 0 0 0 0 0 0 0 0 -0 -0 -0 0 0 0 0 0 -0 0 0 0 0 0 0 0 0 0 0 0 0 0 0 0 0 0 0 0 0 0 0 0 0 0 0 0 0
0 0 0 0 0 0 0 0 0 0 0 0 0 0 0 0 0 0 0 0 0 -0 -0 -0 -0 -0 -0 -0 -0 0 0 0 0 0 0 0 0 0 0 0 0 0 0 0 0 0 0 0 0 0 0 0 0 0
0 0 0 0 0 0 0 0 0 0 0 0 0 0 0 0 0 0 0 0 0 0 0 0 0 0 0 0 0 0 0 0 0 0 0 0 0 0 0 0 0 0 0 0 0 0 0 0 0 0 0 0 0 0
0 0 0 0 0 0 0 0 0 0 0 0 0 0 0 0 0 0 0 0 0 0 0 0 0 0 0 0 0 -0 0 -0 0 0 0 0 0 0 0 0 0 0 0 0 0 0 0 0 0 0 0 0 0 0
0 0 0 0 0 0 0 0 0 0 0 0 0 0 0 0 0 0 0 0 0 0 0 0 0 0 0 0 -0 -0 0 0 0 -0 0 0 0 0 0 0 0 0 0 0 0 0 0 0 0 0 0 0 0 0
0 0 0 0 0 0 0 0 0 0 0 0 0 0 0 0 0 0 0 0 0 0 0 0 0 0 0 0 0 0 0 0 0 0 0 0 0 0 0 0 0 0 0 0 0 0 0 0 0 0 0 0 0 0
0 0 0 0 0 0 0 0 0 0 0 0 0 0 0 0 0 0 0 0 0 0 0 0 0 0 0 0 0 0 0 0 0 0 0 0 0 0 0 0 0 0 0 0 0 0 0 0 0 0 0 0 0 0
0 0 0 0 0 0 0 0 0 0 0 0 0 0 0 0 0 0 0 0 0 0 0 0 0 0 0 0 0 0 0 0 0 0 0 0 0 0 0 0 0 0 0 0 0 0 0 0 0 0 0 0 0 0
0 0 0 0 0 0 0 0 0 0 0 0 0 0 0 0 0 0 0 0 0 0 0 0 0 0 0 0 0 0 0 0 0 0 0 0 0 0 0 0 0 0 0 0 0 0 0 0 0 0 0 0 0 0
0 0 0 0 0 0 0 0 0 0 0 0 0 0 0 0 0 0 0 0 0 0 0 0 0 0 0 0 0 0 0 0 0 0 0 0 0 0 0 0 0 0 0 0 0 0 0 0 0 0 0 0 0 0
0 0 0 0 0 0 0 0 0 0 0 0 0 0 0 0 0 0 0 0 0 0 0 0 0 0 0 0 0 0 0 0 0 0 0 0 0 0 0 0 0 0 0 0 0 0 0 0 0 0 0 0 0 0
0 0 0 0 0 0 0 0 0 0 0 0 0 0 0 0 0 0 0 0 0 0 0 0 0 0 0 0 0 0 0 0 0 0 0 0 0 0 0 0 0 0 0 0 0 0 0 0 0 0 0 0 0 0
0 0 0 0 0 0 0 0 0 0 0 0 0 0 0 0 0 0 0 0 0 0 0 -0 -0 0 0 0 0 0 0 0 0 0 0 0 0 0 0 0 0 0 0 0 0 0 0 0 0 0 0 0 0 0
Wind_Speed_500mb
42 39 47 36 38 38 51 53 51 61 48 41 39 42 38 38 42 36 22 16 4 5 12 20 18 17 11 8 4 3 12 14 9 16 11 8 7 11 7 14 29 16 19 9 8 6 26 28 50 49 35 15 8 61
55 51 60 54 45 40 53 52 59 56 41 38 34 31 28 29 28 27 22 25 22 10 5 8 17 19 21 21 15 6 11 10 9 9 7 5 6 8 11 16 6 15 17 16 22 26 2 78 20 34 36 17 28 29
67 72 68 81 60 73 79 69 61 48 40 34 30 27 26 25 23 23 19 25 18 5 3 8 10 12 14 17 23 8 15 19 12 7 5 3 14 9 9 9 11 3 5 10 9 8 10 43 9 43 10 17 20 23
83 81 78 67 71 80 69 63 56 50 40 33 29 26 24 23 21 17 20 23 16 7 4 8 9 8 13 15 22 44 67 66 51 30 8 6 7 7 6 8 6 1 8 7 2 6 3 3 43 15 46 9 15 17
82 75 73 69 68 64 64 58 49 46 42 39 36 31 30 26 19 13 13 15 18 11 8 7 13 10 20 19 21 25 37 55 27 7 7 7 5 7 3 7 9 16 11 2 1 13 12 8 28 22 29 49 25 19
75 68 64 63 60 57 49 44 37 32 28 26 23 21 19 15 12 5 6 10 4 12 4 1 7 11 23 27 16 20 18 21 14 8 4 8 6 4 3 7 14 27 24 19 10 41 32 34 9 14 11 20 29 29
72 67 62 55 51 47 44 38 30 25 24 22 19 15 11 8 8 3 7 8 3 5 3 6 7 5 31 20 16 16 21 9 6 8 3 7 6 13 7 7 29 40 36 14 31 33 1 28 21 24 8 9 18 21
76 65 55 48 45 39 32 28 27 23 17 16 19 21 23 22 22 20 19 25 5 5 2 4 8 8 32 15 12 17 13 10 14 10 12 6 11 11 11 24 36 41 33 3 37 26 19 17 14 19 9 4 11 16
69 65 59 51 40 34 28 21 15 12 13 7 5 5 4 4 4 9 10 12 21 10 9 8 4 7 33 8 11 15 12 4 16 6 6 9 9 14 13 30 39 44 35 48 34 11 28 35 35 33 22 18 13 10
65 66 64 54 46 40 28 25 17 8 6 7 1 4 4 8 10 7 6 3 9 19 14 4 16 6 20 13 7 9 5 3 5 5 9 8 6 13 29 27 32 38 38 44 38 35 50 49 48 44 40 32 25 18
57 59 58 58 52 44 37 27 20 15 9 4 5 5 9 9 5 6 11 17 18 9 21 16 10 7 16 6 6 15 5 5 6 6 7 5 5 10 34 34 36 39 36 33 25 21 23 25 27 30 31 31 27 22
54 54 53 54 55 49 38 29 22 15 11 7 3 4 7 10 9 14 3 9 11 1 20 7 13 11 17 11 5 10 4 5 4 13 5 5 5 25 37 38 36 38 35 33 32 30 31 30 29 27 26 27 26 22
51 49 48 52 50 51 39 27 20 13 4 4 3 7 18 19 19 11 7 9 7 18 18 23 8 16 13 8 6 5 10 2 9 7 5 3 16 30 35 35 31 32 30 30 31 31 30 31 29 28 26 23 19 16
49 45 48 50 39 47 35 25 11 5 2 5 14 14 9 9 5 6 6 6 10 16 38 31 16 6 11 7 2 6 4 3 7 7 5 5 21 29 28 28 29 33 34 34 34 33 33 31 31 28 25 22 17 14
49 45 55 41 42 50 25 17 8 5 10 13 13 7 6 2 1 2 6 11 11 27 26 14 11 7 6 7 5 5 11 8 6 4 4 17 24 22 23 26 28 30 31 31 30 29 29 28 25 23 23 22 19 15
44 47 58 46 39 45 21 14 16 19 14 13 17 10 5 4 3 3 8 8 22 26 11 5 3 7 7 1 10 5 3 4 4 2 13 19 18 17 18 21 24 26 27 27 27 28 26 25 23 21 19 18 17 15
38 40 50 48 31 44 19 15 17 19 14 11 12 14 9 6 3 5 13 21 27 12 2 3 8 9 5 7 7 1 2 2 7 14 13 14 16 17 17 18 20 21 24 26 26 25 25 24 22 19 17 19 18 16
35 38 43 42 31 17 51 24 15 15 16 15 7 8 9 12 9 9 16 25 18 8 6 2 1 8 3 3 6 5 4 9 8 7 9 12 10 12 14 15 17 20 23 24 25 26 26 25 24 25 25 24 23 21
33 36 37 38 21 17 13 17 16 12 11 6 6 10 5 5 10 14 18 24 15 7 2 3 7 3 3 5 6 7 12 14 13 17 14 4 7 11 15 20 22 24 27 28 27 28 29 31 30 30 30 31 30 30
24 26 27 33 24 10 11 13 12 11 6 4 5 7 5 5 15 14 14 17 12 4 2 2 6 4 6 5 7 11 12 14 16 14 7 14 16 21 24 25 25 24 24 24 25 28 29 27 31 35 34 33 35 33
18 18 20 13 22 24 14 9 11 9 7 3 6 8 4 8 6 9 9 21 3 3 3 2 2 2 2 3 3 4 5 4 6 9 15 17 15 16 17 22 25 27 30 31 31 27 27 29 30 32 34 34 38 41
15 15 13 17 13 11 13 15 8 5 1 1 2 9 4 4 6 8 26 3 6 4 4 4 5 4 4 4 5 6 7 8 9 9 12 16 18 19 19 24 29 29 30 32 36 38 35 34 38 40 43 43 46 47
10 11 11 15 8 9 5 5 2 4 4 7 4 3 4 7 7 19 7 6 6 9 7 6 6 6 7 7 8 10 10 10 10 12 13 17 19 20 22 23 28 33 36 32 36 38 40 40 39 41 42 44 46 47
10 7 10 10 16 3 3 5 5 3 2 6 6 7 6 9 17 4 5 7 11 12 10 9 7 7 7 8 8 9 11 14 15 17 22 24 26 24 28 31 34 39 40 41 37 36 37 38 41 43 45 48 49 53
5 16 11 10 12 8 10 10 11 7 2 3 2 5 5 8 5 4 5 8 18 15 12 11 9 7 7 6 8 12 16 18 19 20 20 26 29 32 32 31 33 38 39 38 40 43 44 47 50 54 56 58 61 62
11 9 7 2 3 4 4 4 3 3 2 4 8 4 4 5 3 10 7 9 18 10 7 9 10 10 8 8 10 14 18 19 21 22 22 26 30 34 37 45 50 49 46 51 55 58 60 61 64 66 68 68 69 72
5 3 3 4 3 0 3 2 2 0 3 7 4 2 5 1 9 10 8 11 13 7 5 7 10 10 10 11 12 16 16 16 17 21 25 28 31 33 40 45 49 47 50 54 57 60 66 70 72 73 74 74 71 69
7 3 1 9 5 5 2 2 6 9 6 7 10 5 9 13 8 1 6 7 10 12 12 17 22 26 29 31 28 26 26 25 25 29 33 35 31 45 47 50 54 57 60 61 64 67 67 68 68 67 66 67 70 66
2 7 10 3 5 8 12 10 7 5 6 12 6 7 10 11 8 6 11 13 16 26 43 44 37 34 32 30 30 33 34 35 39 44 47 47 49 50 56 60 59 57 57 58 55 54 54 55 55 56 62 67 70 71
3 7 5 2 4 7 6 12 8 12 17 23 21 26 34 53 59 61 68 69 61 39 19 12 11 11 15 18 22 25 28 29 31 33 41 49 56 60 56 54 52 51 53 55 59 62 61 63 65 64 64 64 63 63
8 5 5 8 10 7 11 21 34 42 38 28 34 37 46 38 31 18 19 7 12 14 10 3 9 13 14 16 20 23 28 32 36 41 47 50 48 47 47 48 50 53 55 58 60 61 62 63 62 63 63 61 60 60
5 5 3 5 8 15 27 10 13 10 12 8 8 10 14 12 11 20 22 21 26 21 15 12 12 15 17 20 24 28 33 34 39 41 40 38 39 43 47 50 51 54 55 56 55 54 53 53 55 56 58 58 57 56
7 7 8 10 10 8 11 22 7 8 8 7 7 8 7 8 9 13 23 29 27 23 20 18 18 19 21 26 32 31 31 32 33 32 33 38 42 47 51 50 51 51 51 49 49 50 51 53 54 55 55 56 57 56
Wind_Direction_500mb
59 44 29 57 89 121 139 145 148 156 144 152 160 173 179 189 203 214 215 241 225 168 188 201 218 215 201 188 216 333 325 224 206 208 207 178 209 239 148 175 170 161 164 167 122 135 257 160 152 168 210 194 110 215
62 58 74 83 92 128 139 156 150 136 138 146 155 160 166 179 193 204 213 218 215 210 175 215 228 243 250 250 255 214 266 280 270 225 202 152 179 249 171 175 188 171 191 171 201 206 282 171 181 188 179 183 215 243
70 66 71 75 89 90 105 113 122 129 129 133 137 145 156 164 171 183 189 190 194 199 283 240 249 253 255 264 264 209 243 233 258 296 308 240 240 198 166 234 135 179 158 170 132 216 184 199 167 204 176 206 226 240
73 71 66 68 75 78 91 98 100 111 117 124 130 140 150 154 162 177 171 169 177 148 132 214 208 249 299 277 276 254 257 264 280 289 234 239 251 249 188 162 126 12 124 165 293 36 9 266 217 221 223 243 212 203
74 72 71 73 69 78 83 89 95 101 104 107 110 110 116 119 120 131 136 170 211 206 202 201 223 275 331 309 293 280 268 252 256 246 217 218 259 286 260 90 49 359 19 23 52 6 314 28 348 262 245 234 234 219
62 65 66 67 66 75 77 81 78 88 100 108 111 112 117 121 134 109 130 70 96 192 221 339 226 246 326 316 292 324 311 254 233 247 246 244 245 261 60 78 35 9 358 8 325 317 292 313 308 350 242 241 221 206
53 53 54 56 60 64 68 75 83 82 86 91 93 100 128 166 206 62 84 343 33 156 230 333 324 313 335 324 320 328 334 310 314 299 292 305 18 359 32 70 348 344 334 348 355 356 160 14 338 347 306 234 201 205
49 47 44 44 45 48 53 61 67 70 72 79 86 90 97 102 97 62 54 40 71 156 88 61 293 347 3 331 310 339 316 332 21 342 341 11 23 42 57 350 349 348 350 251 356 23 6 346 356 24 32 120 158 186
32 32 36 40 36 29 25 27 36 52 62 59 52 42 62 55 57 359 3 34 41 81 101 67 56 289 346 323 303 322 338 332 355 21 19 43 14 45 347 344 349 355 359 329 347 29 25 32 29 30 38 70 77 84
23 20 14 13 21 26 18 12 0 359 355 356 53 172 89 356 349 7 8 36 46 36 48 77 339 279 343 331 300 325 6 16 355 44 358 60 82 110 12 350 349 358 3 6 17 5 6 17 23 25 33 44 54 61
11 9 8 7 0 2 8 14 353 339 315 357 37 50 3 357 19 48 49 41 347 29 13 0 359 310 359 337 303 355 324 336 351 359 2 61 56 10 351 355 0 7 14 21 32 33 29 22 24 31 37 45 52 59
2 4 7 7 3 357 355 357 12 28 50 54 68 10 7 30 56 72 358 342 40 205 335 335 321 310 301 319 322 344 339 7 347 325 28 55 16 353 352 357 1 9 13 20 25 31 37 37 37 39 44 49 53 62
2 359 358 356 355 353 346 350 357 7 19 17 6 49 15 352 43 55 355 329 3 351 15 339 317 326 315 335 309 355 22 321 291 37 65 25 341 349 354 355 6 10 17 21 26 33 34 36 36 36 40 46 52 66
6 0 357 351 355 350 337 339 353 2 191 73 35 29 53 355 45 180 192 219 315 310 329 325 285 318 318 341 358 30 268 356 51 50 19 355 344 344 353 357 3 12 18 21 24 27 30 31 35 35 37 41 46 63
5 5 1 360 358 355 358 4 42 103 68 66 43 62 60 139 171 328 318 310 322 319 332 330 283 299 315 5 27 335 14 42 37 7 333 334 339 346 355 3 7 12 17 21 20 23 30 29 29 33 38 37 37 47
358 0 2 10 6 7 15 29 83 83 63 57 56 82 97 96 356 49 2 13 342 339 323 289 317 30 1 4 37 33 43 7 319 279 322 332 341 346 352 358 3 8 11 13 14 18 21 23 27 28 25 23 28 33
352 357 0 7 15 16 18 56 47 56 60 56 47 46 73 71 81 18 5 360 349 351 13 62 42 234 308 40 18 248 133 261 308 318 325 332 335 337 342 349 354 360 5 7 9 11 15 14 12 8 359 5 4 2
357 359 2 6 11 21 42 47 65 65 67 64 78 31 42 39 9 10 360 355 2 14 359 150 3 40 110 94 297 258 302 318 327 345 342 344 355 1 10 16 7 358 359 2 2 4 3 1 358 356 352 350 347 343
0 2 6 9 19 32 44 42 46 83 69 80 61 32 18 354 354 346 350 352 347 356 346 163 73 133 233 250 262 308 326 334 323 331 337 2 9 4 356 351 351 352 350 349 351 351 353 348 342 340 337 334 331 326
9 11 10 22 26 61 69 48 58 81 87 66 36 359 338 317 328 326 330 343 336 307 292 75 192 195 176 203 262 295 318 327 333 353 357 348 351 346 344 345 347 347 347 345 344 340 339 339 329 328 330 328 322 318
20 22 26 34 39 54 70 56 62 79 106 88 8 355 287 307 311 326 317 336 292 240 246 209 291 303 265 249 248 274 292 311 330 331 326 332 334 330 331 326 329 331 333 336 332 334 332 328 320 315 315 316 311 312
21 25 30 40 55 63 64 45 72 73 59 83 360 340 328 327 330 342 326 261 246 264 262 293 320 331 333 330 326 330 328 330 331 328 323 330 339 335 334 330 327 330 334 337 331 330 332 327 320 317 315 313 310 309
14 22 42 36 69 50 70 36 107 33 86 327 318 25 333 335 324 329 269 246 244 224 232 252 275 293 307 313 316 323 328 329 331 326 325 328 335 335 331 336 325 327 327 329 323 321 320 319 315 313 311 309 307 305
32 52 37 37 25 93 36 47 35 23 67 30 36 338 328 310 329 24 251 262 215 212 230 231 245 264 292 309 318 329 332 333 338 340 330 332 334 338 333 334 331 330 328 330 329 325 323 318 313 310 309 307 306 305
64 12 22 8 23 18 23 355 344 40 360 309 29 313 306 337 22 333 240 259 222 222 229 228 230 247 271 285 308 325 333 336 340 350 344 342 344 342 341 340 338 337 332 328 325 322 319 316 313 311 310 309 308 306
73 2 52 208 317 46 189 312 313 293 150 314 238 305 343 80 65 246 232 226 202 209 242 247 252 264 280 307 334 331 334 340 346 353 351 345 341 338 336 334 334 337 328 323 320 317 315 313 311 310 307 306 304 303
77 317 98 31 349 240 109 130 159 272 264 220 229 72 63 337 249 249 208 210 199 218 278 278 275 283 283 291 303 307 320 323 326 329 334 334 332 330 330 326 327 325 317 315 313 310 309 309 308 308 307 307 307 307
74 63 254 316 264 239 270 228 192 218 228 187 145 211 198 205 244 294 188 173 210 245 277 295 292 287 286 289 283 282 283 289 296 304 310 317 319 325 323 324 322 318 315 313 312 311 311 311 312 312 312 311 310 311
44 344 337 350 274 237 228 217 240 231 211 189 202 244 245 238 253 247 239 248 266 283 292 297 294 289 288 282 274 273 277 286 294 300 305 310 320 324 323 321 319 317 315 315 315 313 312 312 313 308 304 304 306 306
314 327 307 265 243 252 225 216 255 275 266 252 263 273 274 274 284 287 283 278 278 276 273 294 317 311 313 304 300 300 301 304 311 313 316 322 324 323 321 321 323 323 321 318 316 316 316 315 315 314 314 314 314 314
294 282 270 243 264 270 282 297 293 285 278 270 267 264 275 295 308 353 350 287 187 149 132 76 330 329 330 328 328 326 323 322 321 321 320 320 322 323 326 327 325 322 321 321 322 323 323 323 323 323 323 322 322 320
257 236 256 285 282 302 313 321 294 283 298 312 294 292 308 298 295 9 22 77 96 98 80 30 10 358 347 339 332 329 324 324 325 326 326 329 331 330 329 329 329 330 330 329 329 327 327 326 325 325 324 324 324 322
279 276 260 281 298 304 322 328 296 308 279 285 288 304 301 287 276 28 51 70 66 52 33 15 1 353 346 337 330 327 330 331 331 333 338 339 337 335 335 336 335 333 333 333 333 333 333 332 331 330 328 327 326 325
Wind_Speed_850mb
42 39 47 36 38 38 51 53 51 61 48 41 39 42 38 38 42 36 22 16 4 5 12 20 18 17 11 8 4 3 12 14 9 16 11 8 7 11 7 14 29 16 19 9 8 6 26 28 50 49 35 15 8 61
55 51 60 54 45 40 53 52 59 56 41 38 34 31 28 29 28 27 22 25 22 10 5 8 17 19 21 21 15 6 11 10 9 9 7 5 6 8 11 16 6 15 17 16 22 26 2 78 20 34 36 17 28 29
67 72 68 81 60 73 79 69 61 48 40 34 30 27 26 25 23 23 19 25 18 5 3 8 10 12 14 17 23 8 15 19 12 7 5 3 14 9 9 9 11 3 5 10 9 8 10 43 9 43 10 17 20 23
83 81 78 67 71 80 69 63 56 50 40 33 29 26 24 23 21 17 20 23 16 7 4 8 9 8 13 15 22 44 67 66 51 30 8 6 7 7 6 8 6 1 8 7 2 6 3 3 43 15 46 9 15 17
82 75 73 69 68 64 64 58 49 46 42 39 36 31 30 26 19 13 13 15 18 11 8 7 13 10 20 19 21 25 37 55 27 7 7 7 5 7 3 7 9 16 11 2 1 13 12 8 28 22 29 49 25 19
75 68 64 63 60 57 49 44 37 32 28 26 23 21 19 15 12 5 6 10 4 12 4 1 7 11 23 27 16 20 18 21 14 8 4 8 6 4 3 7 14 27 24 19 10 41 32 34 9 14 11 20 29 29
72 67 62 55 51 47 44 38 30 25 24 22 19 15 11 8 8 3 7 8 3 5 3 6 7 5 31 20 16 16 21 9 6 8 3 7 6 13 7 7 29 40 36 14 31 33 1 28 21 24 8 9 18 21
76 65 55 48 45 39 32 28 27 23 17 16 19 21 23 22 22 20 19 25 5 5 2 4 8 8 32 15 12 17 13 10 14 10 12 6 11 11 11 24 36 41 33 3 37 26 19 17 14 19 9 4 11 16
69 65 59 51 40 34 28 21 15 12 13 7 5 5 4 4 4 9 10 12 21 10 9 8 4 7 33 8 11 15 12 4 16 6 6 9 9 14 13 30 39 44 35 48 34 11 28 35 35 33 22 18 13 10
65 66 64 54 46 40 28 25 17 8 6 7 1 4 4 8 10 7 6 3 9 19 14 4 16 6 20 13 7 9 5 3 5 5 9 8 6 13 29 27 32 38 38 44 38 35 50 49 48 44 40 32 25 18
57 59 58 58 52 44 37 27 20 15 9 4 5 5 9 9 5 6 11 17 18 9 21 16 10 7 16 6 6 15 5 5 6 6 7 5 5 10 34 34 36 39 36 33 25 21 23 25 27 30 31 31 27 22
54 54 53 54 55 49 38 29 22 15 11 7 3 4 7 10 9 14 3 9 11 1 20 7 13 11 17 11 5 10 4 5 4 13 5 5 5 25 37 38 36 38 35 33 32 30 31 30 29 27 26 27 26 22
51 49 48 52 50 51 39 27 20 13 4 4 3 7 18 19 19 11 7 9 7 18 18 23 8 16 13 8 6 5 10 2 9 7 5 3 16 30 35 35 31 32 30 30 31 31 30 31 29 28 26 23 19 16
49 45 48 50 39 47 35 25 11 5 2 5 14 14 9 9 5 6 6 6 10 16 38 31 16 6 11 7 2 6 4 3 7 7 5 5 21 29 28 28 29 33 34 34 34 33 33 31 31 28 25 22 17 14
49 45 55 41 42 50 25 17 8 5 10 13 13 7 6 2 1 2 6 11 11 27 26 14 11 7 6 7 5 5 11 8 6 4 4 17 24 22 23 26 28 30 31 31 30 29 29 28 25 23 23 22 19 15
44 47 58 46 39 45 21 14 16 19 14 13 17 10 5 4 3 3 8 8 22 26 11 5 3 7 7 1 10 5 3 4 4 2 13 19 18 17 18 21 24 26 27 27 27 28 26 25 23 21 19 18 17 15
38 40 50 48 31 44 19 15 17 19 14 11 12 14 9 6 3 5 13 21 27 12 2 3 8 9 5 7 7 1 2 2 7 14 13 14 16 17 17 18 20 21 24 26 26 25 25 24 22 19 17 19 18 16
35 38 43 42 31 17 51 24 15 15 16 15 7 8 9 12 9 9 16 25 18 8 6 2 1 8 3 3 6 5 4 9 8 7 9 12 10 12 14 15 17 20 23 24 25 26 26 25 24 25 25 24 23 21
33 36 37 38 21 17 13 17 16 12 11 6 6 10 5 5 10 14 18 24 15 7 2 3 7 3 3 5 6 7 12 14 13 17 14 4 7 11 15 20 22 24 27 28 27 28 29 31 30 30 30 31 30 30
24 26 27 33 24 10 11 13 12 11 6 4 5 7 5 5 15 14 14 17 12 4 2 2 6 4 6 5 7 11 12 14 16 14 7 14 16 21 24 25 25 24 24 24 25 28 29 27 31 35 34 33 35 33
18 18 20 13 22 24 14 9 11 9 7 3 6 8 4 8 6 9 9 21 3 3 3 2 2 2 2 3 3 4 5 4 6 9 15 17 15 16 17 22 25 27 30 31 31 27 27 29 30 32 34 34 38 41
15 15 13 17 13 11 13 15 8 5 1 1 2 9 4 4 6 8 26 3 6 4 4 4 5 4 4 4 5 6 7 8 9 9 12 16 18 19 19 24 29 29 30 32 36 38 35 34 38 40 43 43 46 47
10 11 11 15 8 9 5 5 2 4 4 7 4 3 4 7 7 19 7 6 6 9 7 6 6 6 7 7 8 10 10 10 10 12 13 17 19 20 22 23 28 33 36 32 36 38 40 40 39 41 42 44 46 47
10 7 10 10 16 3 3 5 5 3 2 6 6 7 6 9 17 4 5 7 11 12 10 9 7 7 7 8 8 9 11 14 15 17 22 24 26 24 28 31 34 39 40 41 37 36 37 38 41 43 45 48 49 53
5 16 11 10 12 8 10 10 11 7 2 3 2 5 5 8 5 4 5 8 18 15 12 11 9 7 7 6 8 12 16 18 19 20 20 26 29 32 32 31 33 38 39 38 40 43 44 47 50 54 56 58 61 62
11 9 7 2 3 4 4 4 3 3 2 4 8 4 4 5 3 10 7 9 18 10 7 9 10 10 8 8 10 14 18 19 21 22 22 26 30 34 37 45 50 49 46 51 55 58 60 61 64 66 68 68 69 72
5 3 3 4 3 0 3 2 2 0 3 7 4 2 5 1 9 10 8 11 13 7 5 7 10 10 10 11 12 16 16 16 17 21 25 28 31 33 40 45 49 47 50 54 57 60 66 70 72 73 74 74 71 69
7 3 1 9 5 5 2 2 6 9 6 7 10 5 9 13 8 1 6 7 10 12 12 17 22 26 29 31 28 26 26 25 25 29 33 35 31 45 47 50 54 57 60 61 64 67 67 68 68 67 66 67 70 66
2 7 10 3 5 8 12 10 7 5 6 12 6 7 10 11 8 6 11 13 16 26 43 44 37 34 32 30 30 33 34 35 39 44 47 47 49 50 56 60 59 57 57 58 55 54 54 55 55 56 62 67 70 71
3 7 5 2 4 7 6 12 8 12 17 23 21 26 34 53 59 61 68 69 61 39 19 12 11 11 15 18 22 25 28 29 31 33 41 49 56 60 56 54 52 51 53 55 59 62 61 63 65 64 64 64 63 63
8 5 5 8 10 7 11 21 34 42 38 28 34 37 46 38 31 18 19 7 12 14 10 3 9 13 14 16 20 23 28 32 36 41 47 50 48 47 47 48 50 53 55 58 60 61 62 63 62 63 63 61 60 60
5 5 3 5 8 15 27 10 13 10 12 8 8 10 14 12 11 20 22 21 26 21 15 12 12 15 17 20 24 28 33 34 39 41 40 38 39 43 47 50 51 54 55 56 55 54 53 53 55 56 58 58 57 56
7 7 8 10 10 8 11 22 7 8 8 7 7 8 7 8 9 13 23 29 27 23 20 18 18 19 21 26 32 31 31 32 33 32 33 38 42 47 51 50 51 51 51 49 49 50 51 53 54 55 55 56 57 56
Wind_Direction_850mb
59 44 29 57 89 121 139 145 148 156 144 152 160 173 179 189 203 214 215 241 225 168 188 201 218 215 201 188 216 333 325 224 206 208 207 178 209 239 148 175 170 161 164 167 122 135 257 160 152 168 210 194 110 215
62 58 74 83 92 128 139 156 150 136 138 146 155 160 166 179 193 204 213 218 215 210 175 215 228 243 250 250 255 214 266 280 270 225 202 152 179 249 171 175 188 171 191 171 201 206 282 171 181 188 179 183 215 243
70 66 71 75 89 90 105 113 122 129 129 133 137 145 156 164 171 183 189 190 194 199 283 240 249 253 255 264 264 209 243 233 258 296 308 240 240 198 166 234 135 179 158 170 132 216 184 199 167 204 176 206 226 240
73 71 66 68 75 78 91 98 100 111 117 124 130 140 150 154 162 177 171 169 177 148 132 214 208 249 299 277 276 254 257 264 280 289 234 239 251 249 188 162 126 12 124 165 293 36 9 266 217 221 223 243 212 203
74 72 71 73 69 78 83 89 95 101 104 107 110 110 116 119 120 131 136 170 211 206 202 201 223 275 331 309 293 280 268 252 256 246 217 218 259 286 260 90 49 359 19 23 52 6 314 28 348 262 245 234 234 219
62 65 66 67 66 75 77 81 78 88 100 108 111 112 117 121 134 109 130 70 96 192 221 339 226 246 326 316 292 324 311 254 233 247 246 244 245 261 60 78 35 9 358 8 325 317 292 313 308 350 242 241 221 206
53 53 54 56 60 64 68 75 83 82 86 91 93 100 128 166 206 62 84 343 33 156 230 333 324 313 335 324 320 328 334 310 314 299 292 305 18 359 32 70 348 344 334 348 355 356 160 14 338 347 306 234 201 205
49 47 44 44 45 48 53 61 67 70 72 79 86 90 97 102 97 62 54 40 71 156 88 61 293 347 3 331 310 339 316 332 21 342 341 11 23 42 57 350 349 348 350 251 356 23 6 346 356 24 32 120 158 186
32 32 36 40 36 29 25 27 36 52 62 59 52 42 62 55 57 359 3 34 41 81 101 67 56 289 346 323 303 322 338 332 355 21 19 43 14 45 347 344 349 355 359 329 347 29 25 32 29 30 38 70 77 84
23 20 14 13 21 26 18 12 0 359 355 356 53 172 89 356 349 7 8 36 46 36 48 77 339 279 343 331 300 325 6 16 355 44 358 60 82 110 12 350 349 358 3 6 17 5 6 17 23 25 33 44 54 61
11 9 8 7 0 2 8 14 353 339 315 357 37 50 3 357 19 48 49 41 347 29 13 0 359 310 359 337 303 355 324 336 351 359 2 61 56 10 351 355 0 7 14 21 32 33 29 22 24 31 37 45 52 59
2 4 7 7 3 357 355 357 12 28 50 54 68 10 7 30 56 72 358 342 40 205 335 335 321 310 301 319 322 344 339 7 347 325 28 55 16 353 352 357 1 9 13 20 25 31 37 37 37 39 44 49 53 62
2 359 358 356 355 353 346 350 357 7 19 17 6 49 15 352 43 55 355 329 3 351 15 339 317 326 315 335 309 355 22 321 291 37 65 25 341 349 354 355 6 10 17 21 26 33 34 36 36 36 40 46 52 66
6 0 357 351 355 350 337 339 353 2 191 73 35 29 53 355 45 180 192 219 315 310 329 325 285 318 318 341 358 30 268 356 51 50 19 355 344 344 353 357 3 12 18 21 24 27 30 31 35 35 37 41 46 63
5 5 1 360 358 355 358 4 42 103 68 66 43 62 60 139 171 328 318 310 322 319 332 330 283 299 315 5 27 335 14 42 37 7 333 334 339 346 355 3 7 12 17 21 20 23 30 29 29 33 38 37 37 47
358 0 2 10 6 7 15 29 83 83 63 57 56 82 97 96 356 49 2 13 342 339 323 289 317 30 1 4 37 33 43 7 319 279 322 332 341 346 352 358 3 8 11 13 14 18 21 23 27 28 25 23 28 33
352 357 0 7 15 16 18 56 47 56 60 56 47 46 73 71 81 18 5 360 349 351 13 62 42 234 308 40 18 248 133 261 308 318 325 332 335 337 342 349 354 360 5 7 9 11 15 14 12 8 359 5 4 2
357 359 2 6 11 21 42 47 65 65 67 64 78 31 42 39 9 10 360 355 2 14 359 150 3 40 110 94 297 258 302 318 327 345 342 344 355 1 10 16 7 358 359 2 2 4 3 1 358 356 352 350 347 343
0 2 6 9 19 32 44 42 46 83 69 80 61 32 18 354 354 346 350 352 347 356 346 163 73 133 233 250 262 308 326 334 323 331 337 2 9 4 356 351 351 352 350 349 351 351 353 348 342 340 337 334 331 326
9 11 10 22 26 61 69 48 58 81 87 66 36 359 338 317 328 326 330 343 336 307 292 75 192 195 176 203 262 295 318 327 333 353 357 348 351 346 344 345 347 347 347 345 344 340 339 339 329 328 330 328 322 318
20 22 26 34 39 54 70 56 62 79 106 88 8 355 287 307 311 326 317 336 292 240 246 209 291 303 265 249 248 274 292 311 330 331 326 332 334 330 331 326 329 331 333 336 332 334 332 328 320 315 315 316 311 312
21 25 30 40 55 63 64 45 72 73 59 83 360 340 328 327 330 342 326 261 246 264 262 293 320 331 333 330 326 330 328 330 331 328 323 330 339 335 334 330 327 330 334 337 331 330 332 327 320 317 315 313 310 309
14 22 42 36 69 50 70 36 107 33 86 327 318 25 333 335 324 329 269 246 244 224 232 252 275 293 307 313 316 323 328 329 331 326 325 328 335 335 331 336 325 327 327 329 323 321 320 319 315 313 311 309 307 305
32 52 37 37 25 93 36 47 35 23 67 30 36 338 328 310 329 24 251 262 215 212 230 231 245 264 292 309 318 329 332 333 338 340 330 332 334 338 333 334 331 330 328 330 329 325 323 318 313 310 309 307 306 305
64 12 22 8 23 18 23 355 344 40 360 309 29 313 306 337 22 333 240 259 222 222 229 228 230 247 271 285 308 325 333 336 340 350 344 342 344 342 341 340 338 337 332 328 325 322 319 316 313 311 310 309 308 306
73 2 52 208 317 46 189 312 313 293 150 314 238 305 343 80 65 246 232 226 202 209 242 247 252 264 280 307 334 331 334 340 346 353 351 345 341 338 336 334 334 337 328 323 320 317 315 313 311 310 307 306 304 303
77 317 98 31 349 240 109 130 159 272 264 220 229 72 63 337 249 249 208 210 199 218 278 278 275 283 283 291 303 307 320 323 326 329 334 334 332 330 330 326 327 325 317 315 313 310 309 309 308 308 307 307 307 307
74 63 254 316 264 239 270 228 192 218 228 187 145 211 198 205 244 294 188 173 210 245 277 295 292 287 286 289 283 282 283 289 296 304 310 317 319 325 323 324 322 318 315 313 312 311 311 311 312 312 312 311 310 311
44 344 337 350 274 237 228 217 240 231 211 189 202 244 245 238 253 247 239 248 266 283 292 297 294 289 288 282 274 273 277 286 294 300 305 310 320 324 323 321 319 317 315 315 315 313 312 312 313 308 304 304 306 306
314 327 307 265 243 252 225 216 255 275 266 252 263 273 274 274 284 287 283 278 278 276 273 294 317 311 313 304 300 300 301 304 311 313 316 322 324 323 321 321 323 323 321 318 316 316 316 315 315 314 314 314 314 314
294 282 270 243 264 270 282 297 293 285 278 270 267 264 275 295 308 353 350 287 187 149 132 76 330 329 330 328 328 326 323 322 321 321 320 320 322 323 326 327 325 322 321 321 322 323 323 323 323 323 323 322 322 320
257 236 256 285 282 302 313 321 294 283 298 312 294 292 308 298 295 9 22 77 96 98 80 30 10 358 347 339 332 329 324 324 325 326 326 329 331 330 329 329 329 330 330 329 329 327 327 326 325 325 324 324 324 322
279 276 260 281 298 304 322 328 296 308 279 285 288 304 301 287 276 28 51 70 66 52 33 15 1 353 346 337 330 327 330 331 331 333 338 339 337 335 335 336 335 333 333 333 333 333 333 332 331 330 328 327 326 325